Albany, NY

3:46 AM EDT on April 30, 2017 (GMT -0400)
Albany International

Weather History for KALB - October, 2014

Change the Weather History Date:

Sunday, October 5, 2014

  Actual Average Record
Temperature  
Mean Temperature 51 °F 54 °F  
Max Temperature 61 °F 64 °F 91 °F (1941)
Min Temperature 41 °F 43 °F 26 °F (1965)
Degree Days  
Heating Degree Days 14 12  
Month to date heating degree days 31 54  
Since 1 July heating degree days 161 221  
Cooling Degree Days 0 0  
Month to date cooling degree days 1 0  
Year to date cooling degree days 642 594  
Growing Degree Days 2 (Base 50)    
Moisture  
Dew Point 35 °F    
Average Humidity 54    
Maximum Humidity 76    
Minimum Humidity 32    
Precipitation  
Precipitation 0.00 in 0.12 in 1.48 in (1995)
Month to date precipitation 0.45 0.60  
Year to date precipitation 28.12 30.05  
Snow  
Snow 0.00 in 0.00 in 0.00 in ()
Month to date snowfall 0.0 0.0  
Since 1 July snowfall 0.0 0.0  
Since 1 September snowfall 0.0 0.0  
Snow Depth 0.00 in    
Sea Level Pressure  
Sea Level Pressure 29.80 in    
Wind  
Wind Speed 6 mph (West)    
Max Wind Speed 15 mph    
Max Gust Speed 19 mph    
Visibility 10 miles    
Events      
T = Trace of Precipitation, MM = Missing Value Source: NWS Daily Summary

Daily Weather History Graph

Daily Weather History Graph

Search for Another Location

Airport or City:

Trip Planner

Search our weather history database for the weather conditions in past years. The results will help you decide how hot, cold, wet, or windy it might be!

Date:

Astronomy

Oct. 05, 2014 Rise Set
Actual Time 6:56 AM EDT 6:29 PM EDT
Civil Twilight 6:28 AM EDT 6:57 PM EDT
Nautical Twilight 5:55 AM EDT 7:30 PM EDT
Astronomical Twilight 5:22 AM EDT 8:03 PM EDT
Moon 4:49 PM EDT (10/5) 3:26 AM EDT (10/5)
Length of Visible Light 12h 29m
Length of Day
11h 32m
Waxing Gibbous, 89% of the Moon is Illuminated
Oct 5
Waxing Gibbous
Oct 8
Full
Oct 15
Last Quarter
Oct 23
New
Oct 30
First Quarter

Hourly Weather History & Observations

Time (EDT) Temp. Windchill Dew Point Humidity Pressure Visibility Wind Dir Wind Speed Gust Speed Precip Events Conditions
12:51 AM 48.9 °F - 37.9 °F 66% 29.68 in 10.0 mi WNW 9.2 mph - N/A   Mostly Cloudy
1:51 AM 48.0 °F - 37.9 °F 68% 29.68 in 10.0 mi NW 8.1 mph - N/A   Mostly Cloudy
2:51 AM 48.0 °F - 39.0 °F 71% 29.69 in 10.0 mi West 6.9 mph - N/A   Mostly Cloudy
3:51 AM 46.9 °F - 37.9 °F 71% 29.69 in 10.0 mi West 8.1 mph - N/A   Mostly Cloudy
4:51 AM 46.0 °F 41.9 °F 36.0 °F 68% 29.71 in 10.0 mi West 8.1 mph - N/A   Mostly Cloudy
5:51 AM 46.0 °F 41.4 °F 35.1 °F 66% 29.73 in 10.0 mi West 9.2 mph - N/A   Mostly Cloudy
6:51 AM 42.1 °F 37.7 °F 32.0 °F 67% 29.77 in 10.0 mi West 6.9 mph - N/A   Partly Cloudy
7:51 AM 43.0 °F 40.3 °F 33.1 °F 68% 29.79 in 10.0 mi SE 4.6 mph - N/A   Partly Cloudy
8:51 AM 46.9 °F - 33.1 °F 59% 29.80 in 10.0 mi WNW 5.8 mph - N/A   Partly Cloudy
9:51 AM 50.0 °F - 33.1 °F 52% 29.81 in 10.0 mi WSW 11.5 mph - N/A   Partly Cloudy
10:51 AM 52.0 °F - 35.1 °F 53% 29.81 in 10.0 mi West 10.4 mph - N/A   Partly Cloudy
11:51 AM 54.0 °F - 32.0 °F 43% 29.81 in 10.0 mi West 9.2 mph - N/A   Partly Cloudy
12:51 PM 57.0 °F - 30.0 °F 36% 29.80 in 10.0 mi Variable 6.9 mph 16.1 mph N/A   Partly Cloudy
1:51 PM 59.0 °F - 30.9 °F 35% 29.80 in 10.0 mi West 8.1 mph - N/A   Partly Cloudy
2:51 PM 60.1 °F - 30.9 °F 33% 29.79 in 10.0 mi West 11.5 mph - N/A   Partly Cloudy
3:51 PM 60.1 °F - 30.9 °F 33% 29.80 in 10.0 mi WNW 11.5 mph - N/A   Partly Cloudy
4:51 PM 60.1 °F - 33.1 °F 36% 29.81 in 10.0 mi WNW 9.2 mph - N/A   Partly Cloudy
5:51 PM 57.0 °F - 35.1 °F 44% 29.83 in 10.0 mi West 10.4 mph - N/A   Partly Cloudy
6:51 PM 52.0 °F - 35.1 °F 53% 29.86 in 10.0 mi Calm Calm - N/A   Partly Cloudy
7:51 PM 48.9 °F - 39.0 °F 69% 29.89 in 10.0 mi Calm Calm - N/A   Mostly Cloudy
8:51 PM 50.0 °F - 39.9 °F 68% 29.91 in 10.0 mi Calm Calm - N/A   Mostly Cloudy
9:51 PM 46.9 °F - 39.9 °F 77% 29.93 in 10.0 mi Calm Calm - N/A   Partly Cloudy
10:51 PM 44.1 °F 41.5 °F 37.9 °F 79% 29.95 in 10.0 mi South 4.6 mph - N/A   Scattered Clouds
11:51 PM 46.9 °F - 39.0 °F 74% 29.96 in 10.0 mi Calm Calm - N/A   Mostly Cloudy